EW0641 Weather Reports


time (UTC)temp
C
wind
direction
speed
KPH
gust
KPH
rain 1hr
cm
rain 24hr
cm
rain mn
cm
humidity
%
barometer
mb
20260503193059 17 271 0.0 0.0 0.00 0.00 0.00 43 1010.2
20260503191604 17 286 0.0 0.0 0.00 0.00 0.00 43 1010.6
20260503184553 16 288 0.0 0.0 0.00 0.00 0.00 43 1011.1
20260503183051 16 258 0.0 0.0 0.00 0.00 0.00 43 1011.3
20260503181600 16 293 0.0 0.0 0.00 0.00 0.00 44 1011.5
20260503180049 16 242 0.0 0.0 0.00 0.00 0.00 43 1011.7
20260503174547 16 240 0.0 0.0 0.00 0.00 0.00 41 1012.0
20260503173054 16 319 0.0 0.0 0.00 0.00 0.00 42 1012.1
20260503171544 16 306 0.0 0.0 0.00 0.00 0.00 41 1012.2
20260503081526 3 360 0.0 0.0 0.00 0.00 0.00 66 1015.0
20260503071518 4 360 0.0 0.0 0.00 0.00 0.00 68 1015.1
20260503054510 4 360 0.0 0.0 0.00 0.03 0.00 69 1015.7
20260503053011 5 360 0.0 0.0 0.00 0.03 0.00 69 1015.7
20260503051506 5 360 0.0 0.0 0.00 0.03 0.00 69 1015.8
20260503050006 5 360 0.0 0.0 0.00 0.03 0.00 69 1015.9
20260503044505 5 360 0.0 0.0 0.00 0.03 0.00 68 1016.0
20260503043006 5 360 0.0 0.0 0.00 0.03 0.00 68 1015.9
20260503041502 5 360 0.0 0.0 0.00 0.03 0.00 67 1016.0
20260503040111 5 360 0.0 0.0 0.00 0.03 0.00 67 1016.1
20260503034600 5 360 0.0 0.0 0.00 0.03 0.03 67 1016.1
20260503033110 5 360 0.0 0.0 0.00 0.03 0.03 66 1016.3
20260503031605 5 360 0.0 0.0 0.00 0.03 0.03 65 1016.3
20260503030058 5 360 0.0 0.0 0.00 0.03 0.03 65 1016.4
20260503024600 5 360 0.0 0.0 0.00 0.03 0.03 66 1016.5
20260503023104 5 360 0.0 0.0 0.00 0.03 0.03 64 1016.5
20260503021606 5 360 0.0 0.0 0.00 0.03 0.03 63 1016.5
20260503020108 5 360 0.0 0.0 0.00 0.03 0.03 61 1016.5
20260503014556 6 360 0.0 0.0 0.00 0.03 0.03 58 1016.5
20260503013106 7 360 0.0 0.0 0.00 0.03 0.03 56 1016.3
20260503011604 7 360 0.0 0.0 0.00 0.03 0.03 53 1016.3
20260503010058 7 360 0.0 0.0 0.00 0.03 0.03 52 1016.3
20260503004554 8 360 0.0 0.0 0.00 0.03 0.03 51 1016.2
20260503003101 8 360 0.0 0.0 0.00 0.03 0.03 51 1016.2
20260503001553 8 360 0.0 0.0 0.00 0.03 0.03 51 1016.2
20260503000108 8 360 0.0 0.0 0.00 0.03 0.03 51 1016.2
20260502234552 8 360 0.0 0.0 0.00 0.08 0.03 49 1016.1
20260502233052 8 360 0.0 0.0 0.00 0.08 0.03 48 1016.2
20260502231551 8 342 0.0 0.0 0.00 0.08 0.03 48 1016.3
20260502230051 8 355 0.0 0.0 0.00 0.08 0.03 48 1016.2
20260502224549 8 342 0.0 0.0 0.00 0.08 0.03 49 1016.3
20260502223050 8 343 0.0 0.0 0.00 0.08 0.03 47 1016.3
20260502221548 9 350 0.0 0.0 0.00 0.08 0.03 48 1016.3
20260502220048 8 11 0.0 0.0 0.00 0.08 0.03 48 1016.3
20260502214547 8 9 0.0 0.0 0.00 0.08 0.03 49 1016.3
20260502213046 9 336 0.0 0.0 0.00 0.08 0.03 50 1016.4
20260502211552 8 347 0.0 0.0 0.00 0.08 0.03 48 1016.3
20260502210044 8 321 0.0 0.0 0.00 0.08 0.03 47 1016.4
20260502204543 8 350 0.0 0.0 0.00 0.08 0.03 47 1016.4
20260502203043 8 337 0.0 0.0 0.00 0.08 0.03 47 1016.5
20260502201540 8 29 0.0 0.0 0.00 0.08 0.03 48 1016.6
20260502200044 8 355 0.0 0.0 0.00 0.08 0.03 48 1016.8
20260502194538 8 315 0.0 0.0 0.00 0.08 0.03 47 1017.0